DELTA 1 DEB, 21276

Orbit data source: Space-Track

DELTA 1 DEB, 21276 is space debris in SSO originally from a launch on Thu, 12 Jun 1975 UTC launched from the Air Force Western Test Range (AFWTR). Debris objects in space refer to the collection of defunct objects orbiting the Earth. Examples of debris include non-operational satellites, rocket bodies, and fragments generated from explosions, collisions, or faulty payload assembly.

Loading next visibility...
Identifier
21276, 1975-052M
Orbit
SSO
Country
Flag of USUS
Related business
Manufacturer
Unknown
Mission
Spacecraft
Bus & Motor
Unknown
Mass
Unknown
Launch date (UTC)
1975-06-12 (50 years ago)
Launch vehicle
Unknown
Launch site
Air Force Western Test Range (AFWTR)
Object type
Payload
Rocket body
Debris
Shape & HBR
Unknown shape, 1.2 m
Radar Cross Section
Large (>1 m²)

Expand to show TLE details & history
Last TLE update: 10 hours ago

TLE from 10 hours ago
0 DELTA 1 DEB
1 21276U 75052M   25300.47147874  .00000038  00000-0  16156-3 0  9992
2 21276 100.0220 199.3316 0045752 305.7441 227.6899 13.35548423680661
Epoch: 2025-10-27T11:18Z
TLE epoch observation values (Epoch: 2025-10-27T11:18:55.763Z)
Latitude
6.77508°
Longitude
174.7233°
Altitude
1,151.24 km
Speed
7.267 km/s
True Right ascension
01h 22m 06s
True Declination
6° 44' 13"
Sunlit
Object was in full shadow at epoch
Visualization orbit readout
Latitude
Unknown
Longitude
Unknown
Altitude
Unknown
Speed
Unknown
Apparent Right ascension
Unknown
Apparent Declination
Unknown
Sunlit
N/A
Visualization observer readout
Local Sidereal Time
16:44:55
Azimuth
Unknown
Elevation
Unknown
Doppler factor
Unknown
Orbital elements
Apogee altitude
1,157.565 km
Perigee altitude
1,088.925 km
Semi-major axis
7,501.382 km
Eccentricity
0.00458
Inclination
100.022°
RAAN
199.3316°
Arg. of periapsis
305.7441°
True anomaly
227.30368°
Mean anomaly
227.6899°
Eccentric anomaly
227.49664°
Mean motion
3.34065 °/min
Orbital period
107.76 mins
BSTAR
0.00016156
Loading maneuver chart data...
Computing Atmospheric mass density...
Loading historical data...
Loading historical data...
Loading historical data...
Loading historical data...
Loading historical data...
Loading historical data...
Loading historical data...

Documentation

Showing up to 5 results
|